Torna al catalogo

CENTAURI-1

AttivoComunicazioniSSO
NORAD 43809·PAYLOAD·🇦🇺 Australia

Lanciato Dec 3, 2018 da Vandenberg Space Force Base

Loading…

Prossimi Passaggi (prossime 24 ore)

TLE

AggiornatoSource: Space-Track

Epoca: Sep 14, 2026, 14:20 UTC

1 43809U 18099BD  26257.59791061  .00003905  00000-0  19974-3 0  9991
2 43809  97.4128 307.4020 0014340  23.9141 336.2756 15.17135987426051

Traccia CENTAURI-1 in tempo reale con AllMySat

Download on the App Store